Location: La Brionne
(46.1728°N, 1.7849°E)
Time: 22:12:47
(UTC+00:00)

Cosmos 1975 Rocket - Pass Details

Date: 16 June 2021
Orbit: 603 x 633 km, 82.5° (Epoch: 02 August)

Event Time Altitude Azimuth Distance (km) Brightness Sun altitude
Exits shadow 21:18:20 - 190° (S) 2,146 5.4 -12.0°
Reaches altitude 10° 21:18:47 10° 190° (S) 1,959 5.2 -12.1°
Maximum altitude 21:23:08 83° 277° (W) 625 3.1 -12.5°
Drops below altitude 10° 21:27:33 10° 8° (N) 1,993 6.4 -13.0°
Sets 21:29:48 0° 9° (N) 2,909 7.3 -13.2°
